Weather History for Puerto Plata, Dominican Republic

Change the Weather History Date:

Tuesday, August 27, 2013

  Actual Average Record
Temperature  
Mean Temperature 82 °F -  
Max Temperature 90 °F 88 °F 98 °F (1997)
Min Temperature 74 °F 74 °F 73 °F (2003)
Cooling Degree Days 17    
Growing Degree Days 32 (Base 50)    
Moisture  
Dew Point 78 °F    
Average Humidity 80    
Maximum Humidity 94    
Minimum Humidity 64    
Precipitation  
Precipitation 0.00 in - - ()
Sea Level Pressure  
Sea Level Pressure 29.92 in    
Wind  
Wind Speed 6 mph ()    
Max Wind Speed 20 mph    
Max Gust Speed -    
Visibility 7.4 miles    
Events      
Averages and records for this station are not official NWS values.
T = Trace of Precipitation, MM = Missing Value Source: Averaged Metar Reports

Daily Weather History Graph

Daily Weather History Graph

Search for Another Location

Airport:

Trip Planner

Search our weather history database for the weather conditions in past years. The results will help you decide how hot, cold, wet, or windy it might be!

Date:

Astronomy

Aug. 27, 2013 Rise Set
Actual Time 6:25 AM AST 7:01 PM AST
Civil Twilight 6:03 AM AST 7:23 PM AST
Nautical Twilight 5:36 AM AST 7:49 PM AST
Astronomical Twilight 5:10 AM AST 8:16 PM AST
Moon 11:51 PM AST (8/27) 12:22 PM AST (8/27)
Length of Visible Light 13h 20m
Length of Day
12h 35m
Waning Gibbous, 57% of the Moon is Illuminated
Aug 27
Waning Gibbous
Aug 28
Last Quarter
Sep 5
New
Sep 12
First Quarter
Sep 19
Full

Hourly Weather History & Observations

Time (AST) Temp. Heat Index Dew Point Humidity Pressure Visibility Wind Dir Wind Speed Gust Speed Precip Events Conditions
2:00 AM 78.8 °F - 77.0 °F 94% 29.98 in 6.2 mi Calm Calm - N/A   Mostly Cloudy
8:00 AM 80 °F - 76 °F 84% 29.96 in 10 mi Calm Calm - -   Scattered Clouds
8:00 AM 75.2 °F - 73.4 °F 94% 29.92 in 6.2 mi ENE 5.8 mph - N/A   Partly Cloudy
9:00 AM 84.2 °F 96.1 °F 78.8 °F 84% 29.95 in 6.2 mi Calm Calm - N/A   Partly Cloudy
10:00 AM 84.2 °F 96.1 °F 78.8 °F 84% 29.98 in 6.2 mi ENE 5.8 mph - N/A   Scattered Clouds
11:00 AM 86 °F - 79 °F 74% 29.97 in 10 mi ENE 5.8 mph - -   Mostly Cloudy
1:00 PM 86.0 °F 99.3 °F 78.8 °F 79% 29.92 in 6.2 mi ENE 13.8 mph - N/A   Scattered Clouds
2:00 PM 89 °F - 81 °F 70% 29.92 in 10 mi ENE 20.1 mph - -   Partly Cloudy
2:00 PM 89.6 °F 108.2 °F 80.6 °F 75% 29.92 in 6.2 mi ENE 19.6 mph - N/A   Scattered Clouds
3:00 PM 87.8 °F 102.5 °F 78.8 °F 75% 29.89 in 6.2 mi East 16.1 mph - N/A   Scattered Clouds
4:00 PM 87.8 °F 102.5 °F 78.8 °F 75% 29.86 in 6.2 mi East 17.3 mph - N/A   Partly Cloudy
5:00 PM 89 °F - 78 °F 64% 29.87 in 10 mi ESE 17.9 mph - -   Partly Cloudy
5:00 PM 87.8 °F 102.5 °F 78.8 °F 75% 29.86 in 6.2 mi ESE 18.4 mph - N/A   Scattered Clouds
6:00 PM 86.0 °F 99.3 °F 78.8 °F 79% 29.86 in 6.2 mi East 9.2 mph - N/A   Mostly Cloudy
7:00 PM 84.2 °F 96.1 °F 78.8 °F 84% 29.89 in 6.2 mi Calm Calm - N/A   Mostly Cloudy
8:00 PM 83 °F - 76 °F 74% 29.92 in 10 mi Calm Calm - -   Mostly Cloudy
8:00 PM 82.4 °F 90.9 °F 77.0 °F 84% 29.92 in 6.2 mi Calm Calm - N/A   Mostly Cloudy
11:00 PM 81 °F - 76 °F 82% 29.98 in 10 mi Calm Calm - -   Scattered Clouds
11:00 PM 80.6 °F 87.1 °F 77.0 °F 89% 29.98 in 6.2 mi Calm Calm - N/A   Scattered Clouds